Time,TemperatureF,DewpointF,PressureIn,WindDirection,WindDirectionDegrees,WindSpeedMPH,WindSpeedGustMPH,Humidity,HourlyPrecipIn,Conditions,Clouds,dailyrainin,SoftwareType,DateUTC
2013-07-24 00:02:00,68.0,59.0,29.91,NE,47,3.0,5.0,74,0.00,,,0.01,,2013-07-24 05:02:00,
2013-07-24 00:11:00,68.0,60.0,29.92,East,84,2.0,7.0,75,0.00,,,0.01,,2013-07-24 05:11:00,
2013-07-24 00:22:00,67.0,59.0,29.93,ENE,71,2.0,8.0,75,0.00,,,0.01,,2013-07-24 05:22:00,
2013-07-24 00:32:00,67.0,59.0,29.93,ENE,71,2.0,8.0,75,0.00,,,0.01,,2013-07-24 05:32:00,
2013-07-24 00:43:00,67.0,59.0,29.93,ENE,71,3.0,5.0,75,0.00,,,0.01,,2013-07-24 05:43:00,
2013-07-24 00:52:00,66.0,57.0,29.95,ENE,65,2.0,5.0,74,0.00,,,0.01,,2013-07-24 05:52:00,
2013-07-24 01:01:00,66.0,57.0,29.95,ENE,65,2.0,5.0,74,0.00,,,0.01,,2013-07-24 06:01:00,
2013-07-24 01:11:00,66.0,57.0,29.94,ENE,60,3.0,6.0,74,0.00,,,0.01,,2013-07-24 06:11:00,
2013-07-24 01:24:00,66.0,57.0,29.95,ENE,67,3.0,8.0,74,0.00,,,0.01,,2013-07-24 06:24:00,
2013-07-24 01:34:00,66.0,57.0,29.95,ENE,67,3.0,8.0,74,0.00,,,0.01,,2013-07-24 06:34:00,
2013-07-24 01:43:00,65.0,56.0,29.95,ENE,71,3.0,7.0,74,0.00,,,0.01,,2013-07-24 06:43:00,
2013-07-24 01:53:00,65.0,57.0,29.96,ENE,66,4.0,8.0,75,0.00,,,0.01,,2013-07-24 06:53:00,
2013-07-24 02:02:00,65.0,57.0,29.96,ENE,66,4.0,8.0,75,0.00,,,0.01,,2013-07-24 07:02:00,
2013-07-24 02:12:00,65.0,57.0,29.96,ENE,66,3.0,7.0,75,0.00,,,0.01,,2013-07-24 07:12:00,
2013-07-24 02:22:00,64.0,56.0,29.96,ENE,60,3.0,6.0,76,0.00,,,0.01,,2013-07-24 07:22:00,
2013-07-24 02:32:00,64.0,56.0,29.96,ENE,60,3.0,6.0,76,0.00,,,0.01,,2013-07-24 07:32:00,
2013-07-24 02:43:00,64.0,57.0,29.96,ENE,65,0.0,4.0,77,0.00,,,0.01,,2013-07-24 07:43:00,
2013-07-24 02:52:00,63.0,56.0,29.96,ENE,65,2.0,4.0,78,0.00,,,0.01,,2013-07-24 07:52:00,
2013-07-24 03:02:00,63.0,56.0,29.96,ENE,65,2.0,4.0,78,0.00,,,0.01,,2013-07-24 08:02:00,
2013-07-24 03:12:00,63.0,56.0,29.96,ENE,65,0.0,3.0,79,0.00,,,0.01,,2013-07-24 08:12:00,
2013-07-24 03:22:00,62.0,56.0,29.97,ENE,65,0.0,0.0,81,0.00,,,0.01,,2013-07-24 08:22:00,
2013-07-24 03:32:00,62.0,56.0,29.97,ENE,65,0.0,0.0,81,0.00,,,0.01,,2013-07-24 08:32:00,
2013-07-24 03:42:00,62.0,56.0,29.96,ENE,65,0.0,0.0,81,0.00,,,0.01,,2013-07-24 08:42:00,
2013-07-24 03:52:00,62.0,56.0,29.97,ENE,65,0.0,0.0,82,0.00,,,0.01,,2013-07-24 08:52:00,
2013-07-24 04:02:00,62.0,56.0,29.97,ENE,65,0.0,0.0,82,0.00,,,0.01,,2013-07-24 09:02:00,
2013-07-24 04:12:00,62.0,56.0,29.96,ENE,65,3.0,4.0,81,0.00,,,0.01,,2013-07-24 09:12:00,
2013-07-24 04:22:00,62.0,56.0,29.96,ENE,65,0.0,3.0,82,0.00,,,0.01,,2013-07-24 09:22:00,
2013-07-24 04:32:00,62.0,56.0,29.96,ENE,65,0.0,3.0,82,0.00,,,0.01,,2013-07-24 09:32:00,
2013-07-24 04:43:00,61.0,56.0,29.96,ENE,65,1.0,3.0,83,0.00,,,0.01,,2013-07-24 09:43:00,
2013-07-24 04:53:00,60.0,56.0,29.97,ENE,65,0.0,3.0,86,0.00,,,0.01,,2013-07-24 09:53:00,
2013-07-24 05:02:00,60.0,56.0,29.97,ENE,65,0.0,3.0,86,0.00,,,0.01,,2013-07-24 10:02:00,
2013-07-24 05:12:00,60.0,56.0,29.97,ENE,65,0.0,0.0,86,0.00,,,0.01,,2013-07-24 10:12:00,
2013-07-24 05:22:00,60.0,55.0,29.96,ENE,65,0.0,0.0,85,0.00,,,0.01,,2013-07-24 10:22:00,
2013-07-24 05:33:00,60.0,55.0,29.96,ENE,65,0.0,0.0,85,0.00,,,0.01,,2013-07-24 10:33:00,
2013-07-24 05:43:00,60.0,56.0,29.97,ENE,65,0.0,0.0,86,0.00,,,0.01,,2013-07-24 10:43:00,
2013-07-24 05:53:00,60.0,55.0,29.97,ENE,65,0.0,0.0,85,0.00,,,0.01,,2013-07-24 10:53:00,
2013-07-24 06:02:00,60.0,55.0,29.97,ENE,65,0.0,0.0,85,0.00,,,0.01,,2013-07-24 11:02:00,
2013-07-24 06:12:00,60.0,56.0,29.98,ENE,65,1.0,4.0,86,0.00,,,0.01,,2013-07-24 11:12:00,
2013-07-24 06:22:00,57.0,54.0,29.99,ENE,65,2.0,4.0,91,0.00,,,0.01,,2013-07-24 11:22:00,
2013-07-24 06:32:00,57.0,54.0,29.99,ENE,65,2.0,4.0,91,0.00,,,0.01,,2013-07-24 11:32:00,
2013-07-24 06:43:00,57.0,54.0,30.00,ENE,65,3.0,4.0,91,0.00,,,0.01,,2013-07-24 11:43:00,
2013-07-24 06:52:00,57.0,55.0,30.01,WNW,298,0.0,4.0,93,0.00,,,0.01,,2013-07-24 11:52:00,
2013-07-24 07:02:00,57.0,55.0,30.01,WNW,298,0.0,4.0,93,0.00,,,0.01,,2013-07-24 12:02:00,
2013-07-24 07:12:00,58.0,56.0,30.01,WNW,298,0.0,0.0,92,0.00,,,0.01,,2013-07-24 12:12:00,
2013-07-24 07:22:00,58.0,55.0,30.01,WNW,298,0.0,0.0,90,0.00,,,0.01,,2013-07-24 12:22:00,
2013-07-24 07:32:00,58.0,55.0,30.01,WNW,298,0.0,0.0,90,0.00,,,0.01,,2013-07-24 12:32:00,
2013-07-24 07:42:00,59.0,56.0,30.01,WNW,298,0.0,0.0,90,0.00,,,0.01,,2013-07-24 12:42:00,
2013-07-24 07:52:00,60.0,56.0,30.02,WNW,298,0.0,0.0,88,0.00,,,0.01,,2013-07-24 12:52:00,
2013-07-24 08:02:00,60.0,56.0,30.02,WNW,298,0.0,0.0,88,0.00,,,0.01,,2013-07-24 13:02:00,
2013-07-24 08:12:00,62.0,58.0,30.02,WNW,298,0.0,0.0,86,0.00,,,0.01,,2013-07-24 13:12:00,
2013-07-24 08:22:00,63.0,58.0,30.02,NW,325,1.0,4.0,83,0.00,,,0.01,,2013-07-24 13:22:00,
2013-07-24 08:32:00,63.0,58.0,30.02,NW,325,1.0,4.0,83,0.00,,,0.01,,2013-07-24 13:32:00,
2013-07-24 08:43:00,64.0,58.0,30.02,NNW,330,0.0,2.0,81,0.00,,,0.01,,2013-07-24 13:43:00,
2013-07-24 08:53:00,65.0,58.0,30.03,NNW,330,0.0,0.0,79,0.00,,,0.01,,2013-07-24 13:53:00,
2013-07-24 09:02:00,65.0,58.0,30.03,NNW,330,0.0,0.0,79,0.00,,,0.01,,2013-07-24 14:02:00,
2013-07-24 09:12:00,66.0,60.0,30.03,NNW,330,0.0,3.0,81,0.00,,,0.01,,2013-07-24 14:12:00,
2013-07-24 09:22:00,66.0,59.0,30.03,NNW,336,1.0,4.0,78,0.00,,,0.00,,2013-07-24 14:22:00,
2013-07-24 09:32:00,66.0,59.0,30.03,NNW,336,1.0,4.0,78,0.00,,,0.00,,2013-07-24 14:32:00,
2013-07-24 09:43:00,67.0,59.0,30.03,NNW,344,0.0,3.0,76,0.00,,,0.00,,2013-07-24 14:43:00,
2013-07-24 09:55:00,69.0,60.0,30.02,NNW,342,0.0,3.0,73,0.00,,,0.00,,2013-07-24 14:55:00,
2013-07-24 10:02:00,69.0,60.0,30.02,NNW,342,0.0,3.0,73,0.00,,,0.00,,2013-07-24 15:02:00,
2013-07-24 10:12:00,69.0,60.0,30.02,North,355,0.0,3.0,73,0.00,,,0.00,,2013-07-24 15:12:00,
2013-07-24 10:22:00,70.0,60.0,30.02,NNW,332,0.0,4.0,71,0.00,,,0.00,,2013-07-24 15:22:00,
2013-07-24 10:32:00,70.0,60.0,30.02,NNW,332,0.0,4.0,71,0.00,,,0.00,,2013-07-24 15:32:00,
2013-07-24 10:43:00,71.0,60.0,30.02,NNW,332,0.0,2.0,68,0.00,,,0.00,,2013-07-24 15:43:00,
2013-07-24 10:52:00,72.0,60.0,30.02,WNW,294,2.0,5.0,66,0.00,,,0.00,,2013-07-24 15:52:00,
2013-07-24 11:02:00,72.0,60.0,30.02,WNW,294,2.0,5.0,66,0.00,,,0.00,,2013-07-24 16:02:00,
2013-07-24 11:12:00,72.0,60.0,30.01,NW,310,1.0,9.0,65,0.00,,,0.00,,2013-07-24 16:12:00,
2013-07-24 11:22:00,73.0,60.0,30.02,SW,236,1.0,8.0,64,0.00,,,0.00,,2013-07-24 16:22:00,
2013-07-24 11:32:00,73.0,60.0,30.02,SW,236,1.0,8.0,64,0.00,,,0.00,,2013-07-24 16:32:00,
2013-07-24 11:43:00,73.0,60.0,30.01,NNW,336,3.0,8.0,64,0.00,,,0.00,,2013-07-24 16:43:00,
2013-07-24 11:53:00,74.0,61.0,30.01,WSW,238,1.0,8.0,63,0.00,,,0.00,,2013-07-24 16:53:00,
2013-07-24 12:02:00,74.0,61.0,30.01,WSW,238,1.0,8.0,63,0.00,,,0.00,,2013-07-24 17:02:00,
2013-07-24 12:12:00,74.0,60.0,30.01,WSW,251,0.0,7.0,62,0.00,,,0.00,,2013-07-24 17:12:00,
2013-07-24 12:22:00,75.0,61.0,30.02,NNW,342,6.0,10.0,62,0.00,,,0.00,,2013-07-24 17:22:00,
2013-07-24 12:33:00,75.0,61.0,30.02,NNW,342,6.0,10.0,62,0.00,,,0.00,,2013-07-24 17:33:00,
2013-07-24 12:43:00,75.0,62.0,30.02,NNW,346,2.0,11.0,63,0.00,,,0.00,,2013-07-24 17:43:00,
2013-07-24 12:53:00,75.0,62.0,30.02,North,9,2.0,9.0,63,0.00,,,0.00,,2013-07-24 17:53:00,
2013-07-24 13:02:00,75.0,62.0,30.02,North,9,2.0,9.0,63,0.00,,,0.00,,2013-07-24 18:02:00,
2013-07-24 13:12:00,76.0,61.0,30.02,NW,323,2.0,8.0,60,0.00,,,0.00,,2013-07-24 18:12:00,
2013-07-24 13:22:00,76.0,61.0,30.01,NNW,346,1.0,10.0,59,0.00,,,0.00,,2013-07-24 18:22:00,
2013-07-24 13:33:00,76.0,61.0,30.01,NNW,346,1.0,10.0,59,0.00,,,0.00,,2013-07-24 18:33:00,
2013-07-24 14:22:00,77.0,61.0,29.99,NE,47,3.0,6.0,58,0.00,,,0.00,,2013-07-24 19:22:00,
2013-07-24 14:32:00,77.0,61.0,29.99,NE,47,3.0,6.0,58,0.00,,,0.00,,2013-07-24 19:32:00,
2013-07-24 14:43:00,77.0,62.0,29.99,North,5,2.0,10.0,59,0.00,,,0.00,,2013-07-24 19:43:00,
2013-07-24 14:53:00,78.0,62.0,29.98,East,97,0.0,6.0,57,0.00,,,0.00,,2013-07-24 19:53:00,
2013-07-24 15:02:00,78.0,62.0,29.98,East,97,0.0,6.0,57,0.00,,,0.00,,2013-07-24 20:02:00,
2013-07-24 15:13:00,78.0,62.0,29.98,NNE,13,0.0,8.0,58,0.00,,,0.00,,2013-07-24 20:13:00,
2013-07-24 15:22:00,78.0,62.0,29.98,North,5,1.0,7.0,58,0.00,,,0.00,,2013-07-24 20:22:00,
2013-07-24 15:32:00,78.0,62.0,29.98,North,5,1.0,7.0,58,0.00,,,0.00,,2013-07-24 20:32:00,
2013-07-24 15:42:00,78.0,62.0,29.98,ENE,61,0.0,9.0,58,0.00,,,0.00,,2013-07-24 20:42:00,
2013-07-24 15:52:00,79.0,63.0,29.98,NNE,27,0.0,5.0,58,0.00,,,0.00,,2013-07-24 20:52:00,
2013-07-24 16:02:00,79.0,63.0,29.98,NNE,27,0.0,5.0,58,0.00,,,0.00,,2013-07-24 21:02:00,
2013-07-24 16:12:00,79.0,62.0,29.97,NNE,17,2.0,8.0,57,0.00,,,0.00,,2013-07-24 21:12:00,
2013-07-24 16:22:00,79.0,63.0,29.96,West,269,0.0,8.0,58,0.00,,,0.00,,2013-07-24 21:22:00,
2013-07-24 16:32:00,79.0,63.0,29.96,West,269,0.0,8.0,58,0.00,,,0.00,,2013-07-24 21:32:00,
2013-07-24 16:43:00,79.0,61.0,29.96,NNE,19,3.0,7.0,55,0.00,,,0.00,,2013-07-24 21:43:00,
2013-07-24 16:52:00,80.0,62.0,29.95,North,350,0.0,7.0,55,0.00,,,0.00,,2013-07-24 21:52:00,
2013-07-24 17:02:00,80.0,62.0,29.95,North,350,0.0,7.0,55,0.00,,,0.00,,2013-07-24 22:02:00,
2013-07-24 17:12:00,80.0,62.0,29.96,NNE,30,0.0,5.0,55,0.00,,,0.00,,2013-07-24 22:12:00,
2013-07-24 17:22:00,79.0,63.0,29.96,ENE,64,0.0,8.0,58,0.00,,,0.00,,2013-07-24 22:22:00,
2013-07-24 17:32:00,79.0,63.0,29.96,ENE,64,0.0,8.0,58,0.00,,,0.00,,2013-07-24 22:32:00,
2013-07-24 17:43:00,78.0,62.0,29.95,East,88,1.0,5.0,59,0.00,,,0.00,,2013-07-24 22:43:00,
2013-07-24 17:53:00,78.0,62.0,29.94,East,88,0.0,0.0,59,0.00,,,0.00,,2013-07-24 22:53:00,
2013-07-24 18:12:00,79.0,63.0,29.94,East,86,0.0,3.0,59,0.00,,,0.00,,2013-07-24 23:12:00,
2013-07-24 18:22:00,79.0,61.0,29.95,East,84,2.0,7.0,55,0.00,,,0.00,,2013-07-24 23:22:00,
2013-07-24 18:32:00,79.0,61.0,29.95,East,84,2.0,7.0,55,0.00,,,0.00,,2013-07-24 23:32:00,
2013-07-24 18:43:00,79.0,62.0,29.94,East,84,1.0,5.0,57,0.00,,,0.00,,2013-07-24 23:43:00,
2013-07-24 18:52:00,79.0,62.0,29.94,ESE,111,1.0,5.0,56,0.00,,,0.00,,2013-07-24 23:52:00,
2013-07-24 19:02:00,79.0,62.0,29.94,ESE,111,1.0,5.0,56,0.00,,,0.00,,2013-07-25 00:02:00,
2013-07-24 19:12:00,79.0,63.0,29.94,ESE,110,0.0,5.0,58,0.00,,,0.00,,2013-07-25 00:12:00,
2013-07-24 19:22:00,80.0,62.0,29.94,ESE,110,0.0,0.0,55,0.00,,,0.00,,2013-07-25 00:22:00,
2013-07-24 19:33:00,80.0,62.0,29.94,ESE,110,0.0,0.0,55,0.00,,,0.00,,2013-07-25 00:33:00,
2013-07-24 19:43:00,79.0,61.0,29.95,ESE,110,0.0,1.0,55,0.00,,,0.00,,2013-07-25 00:43:00,
2013-07-24 19:52:00,78.0,62.0,29.95,ESE,110,0.0,0.0,58,0.00,,,0.00,,2013-07-25 00:52:00,
2013-07-24 20:02:00,78.0,62.0,29.95,ESE,110,0.0,0.0,58,0.00,,,0.00,,2013-07-25 01:02:00,
2013-07-24 20:12:00,77.0,63.0,29.95,ESE,110,0.0,0.0,61,0.00,,,0.00,,2013-07-25 01:12:00,
2013-07-24 20:22:00,76.0,62.0,29.95,ESE,110,0.0,0.0,62,0.00,,,0.00,,2013-07-25 01:22:00,
2013-07-24 20:32:00,76.0,62.0,29.95,ESE,110,0.0,0.0,62,0.00,,,0.00,,2013-07-25 01:32:00,
2013-07-24 20:43:00,76.0,62.0,29.94,ESE,110,0.0,3.0,62,0.00,,,0.00,,2013-07-25 01:43:00,
2013-07-24 20:53:00,76.0,63.0,29.93,ESE,110,0.0,0.0,64,0.00,,,0.00,,2013-07-25 01:53:00,
2013-07-24 21:02:00,76.0,63.0,29.93,ESE,110,0.0,0.0,64,0.00,,,0.00,,2013-07-25 02:02:00,
2013-07-24 21:12:00,74.0,62.0,29.93,ESE,110,3.0,4.0,66,0.00,,,0.00,,2013-07-25 02:12:00,
2013-07-24 21:22:00,74.0,62.0,29.93,ESE,110,3.0,4.0,66,0.00,,,0.00,,2013-07-25 02:22:00,
2013-07-24 21:33:00,74.0,62.0,29.93,SE,129,2.0,6.0,67,0.00,,,0.00,,2013-07-25 02:33:00,
2013-07-24 21:43:00,73.0,62.0,29.92,SE,129,2.0,4.0,69,0.00,,,0.00,,2013-07-25 02:43:00,
2013-07-24 21:52:00,73.0,62.0,29.93,SE,129,3.0,4.0,69,0.00,,,0.00,,2013-07-25 02:52:00,
2013-07-24 22:02:00,73.0,62.0,29.93,SE,129,3.0,4.0,69,0.00,,,0.00,,2013-07-25 03:02:00,
2013-07-24 22:14:00,73.0,62.0,29.93,SE,128,3.0,4.0,68,0.00,,,0.00,,2013-07-25 03:14:00,
2013-07-24 22:24:00,73.0,62.0,29.94,SE,144,4.0,6.0,68,0.00,,,0.00,,2013-07-25 03:24:00,
2013-07-24 22:35:00,73.0,62.0,29.94,SE,144,4.0,6.0,68,0.00,,,0.00,,2013-07-25 03:35:00,
2013-07-24 22:44:00,73.0,62.0,29.96,SSE,151,2.0,6.0,68,0.00,,,0.00,,2013-07-25 03:44:00,
2013-07-24 22:52:00,73.0,62.0,29.96,SSE,149,2.0,6.0,69,0.00,,,0.00,,2013-07-25 03:52:00,
2013-07-24 23:02:00,73.0,62.0,29.96,SSE,149,2.0,6.0,69,0.00,,,0.00,,2013-07-25 04:02:00,
2013-07-24 23:12:00,73.0,62.0,29.96,SE,139,1.0,6.0,69,0.00,,,0.00,,2013-07-25 04:12:00,
2013-07-24 23:22:00,72.0,62.0,29.97,SSE,155,2.0,6.0,70,0.00,,,0.00,,2013-07-25 04:22:00,
2013-07-24 23:32:00,72.0,62.0,29.97,SSE,155,2.0,6.0,70,0.00,,,0.00,,2013-07-25 04:32:00,
2013-07-24 23:43:00,72.0,61.0,29.97,SSE,155,2.0,5.0,69,0.00,,,0.00,,2013-07-25 04:43:00,
2013-07-24 23:53:00,72.0,62.0,29.97,SSE,157,0.0,2.0,70,0.00,,,0.00,,2013-07-25 04:53:00,